| time (UTC) | temp F | wind direction | speed MPH | gust MPH | rain 1hr in | rain 24hr in | rain mn in | humidity % | barometer mb |
| 20260506073503 | 47 | 0 | 0.0 | 0.0 | 0.00 | 0.56 | 0.00 | 89 | 1008.4 |
| 20260506073004 | 47 | 0 | 0.0 | 0.0 | 0.00 | 0.58 | 0.00 | 89 | 1008.6 |
| 20260506072503 | 47 | 0 | 0.0 | 0.0 | 0.00 | 0.59 | 0.00 | 89 | 1008.7 |
| 20260506072003 | 47 | 0 | 0.0 | 0.0 | 0.00 | 0.60 | 0.00 | 89 | 1008.7 |
| 20260506071504 | 47 | 0 | 0.0 | 0.0 | 0.00 | 0.62 | 0.00 | 89 | 1008.6 |
| 20260506071005 | 47 | 0 | 0.0 | 0.0 | 0.00 | 0.64 | 0.00 | 89 | 1008.7 |
| 20260506070504 | 47 | 0 | 0.0 | 0.0 | 0.00 | 0.70 | 0.00 | 89 | 1008.8 |
| 20260506062503 | 47 | 0 | 0.0 | 0.0 | 0.00 | 0.83 | 0.00 | 89 | 1009.1 |
| 20260506062003 | 47 | 0 | 0.0 | 0.0 | 0.00 | 0.84 | 0.00 | 89 | 1008.6 |
| 20260506061504 | 47 | 0 | 0.0 | 0.0 | 0.00 | 0.85 | 0.00 | 89 | 1008.6 |
| 20260506061004 | 47 | 0 | 0.0 | 0.0 | 0.00 | 0.87 | 0.00 | 89 | 1008.5 |
| 20260506060504 | 47 | 0 | 0.0 | 0.0 | 0.00 | 0.89 | 0.00 | 89 | 1008.4 |
| 20260506051005 | 47 | 0 | 0.0 | 0.0 | 0.00 | 1.08 | 0.00 | 89 | 1009.6 |
| 20260506050504 | 47 | 0 | 0.0 | 0.0 | 0.00 | 1.09 | 0.00 | 89 | 1009.5 |
| 20260506045003 | 47 | 0 | 0.0 | 0.0 | 0.00 | 1.10 | 0.00 | 88 | 1009.6 |
| 20260506044504 | 47 | 0 | 0.0 | 0.0 | 0.01 | 1.10 | 0.00 | 88 | 1009.8 |
| 20260506044003 | 47 | 0 | 0.0 | 0.0 | 0.01 | 1.10 | 0.00 | 88 | 1009.3 |
| 20260506043505 | 47 | 0 | 0.0 | 0.0 | 0.01 | 1.10 | 0.00 | 88 | 1009.2 |
| 20260506043004 | 47 | 0 | 0.0 | 0.0 | 0.01 | 1.10 | 0.00 | 88 | 1008.8 |
| 20260506042504 | 47 | 0 | 0.0 | 0.0 | 0.01 | 1.10 | 0.00 | 89 | 1008.8 |
| 20260506042005 | 47 | 0 | 0.0 | 0.0 | 0.01 | 1.10 | 0.00 | 88 | 1008.8 |
| 20260506041505 | 47 | 0 | 0.0 | 0.0 | 0.01 | 1.10 | 0.00 | 88 | 1008.8 |
| 20260506041003 | 47 | 0 | 0.0 | 0.0 | 0.01 | 1.10 | 0.00 | 88 | 1008.5 |
| 20260506040503 | 48 | 0 | 0.0 | 0.0 | 0.01 | 1.10 | 0.00 | 88 | 1008.4 |
| 20260506040004 | 48 | 0 | 0.0 | 0.0 | 0.01 | 1.10 | 0.00 | 88 | 1008.3 |
| 20260506035504 | 48 | 0 | 0.0 | 0.0 | 0.01 | 1.10 | 1.10 | 88 | 1008.5 |
| 20260506035004 | 48 | 0 | 0.0 | 0.0 | 0.02 | 1.10 | 1.10 | 88 | 1008.4 |
| 20260506034505 | 48 | 0 | 0.0 | 0.0 | 0.01 | 1.09 | 1.09 | 88 | 1008.5 |
| 20260506034003 | 48 | 0 | 0.0 | 0.0 | 0.01 | 1.09 | 1.09 | 88 | 1008.5 |
| 20260506033503 | 48 | 0 | 0.0 | 0.0 | 0.01 | 1.09 | 1.09 | 89 | 1008.3 |
| 20260506033003 | 48 | 0 | 0.0 | 0.0 | 0.01 | 1.09 | 1.09 | 89 | 1008.4 |
| 20260506032504 | 48 | 0 | 0.0 | 0.0 | 0.01 | 1.09 | 1.09 | 89 | 1009.0 |
| 20260506032004 | 48 | 0 | 0.0 | 0.0 | 0.01 | 1.09 | 1.09 | 89 | 1009.1 |
| 20260506031503 | 48 | 0 | 0.0 | 0.0 | 0.01 | 1.09 | 1.09 | 89 | 1009.4 |
| 20260506031004 | 48 | 0 | 0.0 | 0.0 | 0.01 | 1.09 | 1.09 | 89 | 1009.4 |
| 20260506030503 | 48 | 0 | 0.0 | 0.0 | 0.01 | 1.09 | 1.09 | 88 | 1009.1 |
| 20260506030004 | 48 | 0 | 0.0 | 0.0 | 0.01 | 1.09 | 1.09 | 88 | 1008.5 |
| 20260506025505 | 48 | 0 | 0.0 | 0.0 | 0.01 | 1.09 | 1.09 | 88 | 1008.2 |
| 20260506025004 | 48 | 0 | 0.0 | 0.0 | 0.01 | 1.08 | 1.08 | 88 | 1008.0 |
| 20260506024503 | 48 | 0 | 0.0 | 0.0 | 0.01 | 1.08 | 1.08 | 88 | 1007.8 |
| 20260506024004 | 48 | 0 | 0.0 | 0.0 | 0.01 | 1.08 | 1.08 | 88 | 1007.7 |
| 20260506023504 | 48 | 0 | 0.0 | 0.0 | 0.01 | 1.08 | 1.08 | 88 | 1007.5 |
| 20260506023004 | 48 | 0 | 0.0 | 0.0 | 0.01 | 1.08 | 1.08 | 88 | 1007.6 |
| 20260506022504 | 48 | 0 | 0.0 | 0.0 | 0.01 | 1.08 | 1.08 | 88 | 1007.9 |
| 20260506022003 | 48 | 324 | 0.0 | 3.0 | 0.01 | 1.08 | 1.08 | 88 | 1007.9 |
| 20260506021504 | 48 | 323 | 1.0 | 9.0 | 0.01 | 1.08 | 1.08 | 88 | 1008.2 |
| 20260506021004 | 48 | 323 | 1.0 | 9.0 | 0.01 | 1.08 | 1.08 | 88 | 1008.7 |
| 20260506020504 | 48 | 328 | 0.0 | 9.0 | 0.01 | 1.08 | 1.08 | 88 | 1008.8 |
| 20260506020003 | 48 | 0 | 0.0 | 0.0 | 0.02 | 1.08 | 1.08 | 88 | 1008.5 |
| 20260506015503 | 48 | 0 | 0.0 | 0.0 | 0.02 | 1.08 | 1.08 | 88 | 1007.8 |
| 20260506015003 | 48 | 0 | 0.0 | 0.0 | 0.01 | 1.07 | 1.07 | 88 | 1007.4 |
| 20260506014504 | 48 | 0 | 0.0 | 0.0 | 0.01 | 1.07 | 1.07 | 88 | 1007.1 |
| 20260506014003 | 48 | 0 | 0.0 | 0.0 | 0.01 | 1.07 | 1.07 | 88 | 1006.9 |
| 20260506013504 | 48 | 0 | 0.0 | 0.0 | 0.01 | 1.07 | 1.07 | 88 | 1007.3 |
| 20260506013003 | 48 | 0 | 0.0 | 0.0 | 0.01 | 1.07 | 1.07 | 88 | 1007.3 |
| 20260506012503 | 48 | 0 | 0.0 | 0.0 | 0.01 | 1.07 | 1.07 | 88 | 1007.5 |
| 20260506012006 | 48 | 0 | 0.0 | 0.0 | 0.01 | 1.07 | 1.07 | 88 | 1007.3 |
| 20260506011505 | 48 | 0 | 0.0 | 0.0 | 0.01 | 1.07 | 1.07 | 88 | 1007.2 |
| 20260506011004 | 48 | 0 | 0.0 | 0.0 | 0.02 | 1.07 | 1.07 | 88 | 1007.1 |
| 20260506010505 | 48 | 0 | 0.0 | 0.0 | 0.02 | 1.07 | 1.07 | 88 | 1007.0 |
| 20260506010003 | 48 | 0 | 0.0 | 0.0 | 0.01 | 1.06 | 1.06 | 88 | 1007.2 |
| 20260506005503 | 48 | 0 | 0.0 | 0.0 | 0.01 | 1.06 | 1.06 | 88 | 1007.5 |
| 20260506005004 | 48 | 0 | 0.0 | 0.0 | 0.01 | 1.06 | 1.06 | 88 | 1007.3 |
| 20260506004504 | 48 | 0 | 0.0 | 0.0 | 0.01 | 1.06 | 1.06 | 88 | 1007.5 |
| 20260506004003 | 48 | 0 | 0.0 | 0.0 | 0.01 | 1.06 | 1.06 | 88 | 1007.4 |
| 20260506003505 | 48 | 0 | 0.0 | 0.0 | 0.02 | 1.06 | 1.06 | 88 | 1007.5 |
| 20260506003006 | 48 | 0 | 0.0 | 0.0 | 0.02 | 1.06 | 1.06 | 88 | 1007.7 |
| 20260506002504 | 48 | 0 | 0.0 | 0.0 | 0.02 | 1.06 | 1.06 | 88 | 1007.6 |
| 20260506002004 | 48 | 0 | 0.0 | 0.0 | 0.02 | 1.06 | 1.06 | 88 | 1007.5 |
| 20260506001503 | 48 | 54 | 0.0 | 2.0 | 0.02 | 1.06 | 1.06 | 88 | 1007.4 |
| 20260506001004 | 48 | 54 | 0.0 | 9.0 | 0.01 | 1.05 | 1.05 | 88 | 1007.1 |
| 20260506000504 | 48 | 54 | 0.0 | 9.0 | 0.01 | 1.05 | 1.05 | 88 | 1007.1 |
| 20260506000004 | 48 | 0 | 0.0 | 0.0 | 0.01 | 1.05 | 1.05 | 88 | 1007.1 |
| 20260505235505 | 48 | 0 | 0.0 | 0.0 | 0.02 | 1.05 | 1.05 | 88 | 1007.2 |
| 20260505235004 | 48 | 0 | 0.0 | 0.0 | 0.02 | 1.05 | 1.05 | 88 | 1007.3 |
| 20260505234504 | 48 | 0 | 0.0 | 0.0 | 0.02 | 1.05 | 1.05 | 88 | 1007.6 |
| 20260505234003 | 48 | 0 | 0.0 | 0.0 | 0.02 | 1.05 | 1.05 | 88 | 1007.7 |
| 20260505233504 | 48 | 0 | 0.0 | 0.0 | 0.01 | 1.04 | 1.04 | 88 | 1007.6 |
| 20260505233004 | 48 | 0 | 0.0 | 0.0 | 0.01 | 1.04 | 1.04 | 88 | 1007.8 |
| 20260505232504 | 48 | 0 | 0.0 | 0.0 | 0.02 | 1.04 | 1.04 | 88 | 1007.7 |
| 20260505232004 | 48 | 0 | 0.0 | 0.0 | 0.02 | 1.04 | 1.04 | 88 | 1007.7 |
| 20260505231504 | 48 | 0 | 0.0 | 0.0 | 0.02 | 1.04 | 1.04 | 88 | 1007.6 |
| 20260505231003 | 48 | 0 | 0.0 | 0.0 | 0.02 | 1.04 | 1.04 | 88 | 1007.8 |
| 20260505230504 | 48 | 0 | 0.0 | 0.0 | 0.02 | 1.04 | 1.04 | 88 | 1007.9 |
| 20260505230004 | 48 | 0 | 0.0 | 0.0 | 0.02 | 1.04 | 1.04 | 88 | 1008.1 |
| 20260505225503 | 48 | 0 | 0.0 | 0.0 | 0.02 | 1.03 | 1.03 | 88 | 1008.1 |
| 20260505225005 | 48 | 0 | 0.0 | 0.0 | 0.02 | 1.03 | 1.03 | 88 | 1008.0 |
| 20260505224504 | 48 | 0 | 0.0 | 0.0 | 0.02 | 1.03 | 1.03 | 87 | 1007.8 |
| 20260505224003 | 48 | 0 | 0.0 | 0.0 | 0.02 | 1.03 | 1.03 | 87 | 1007.9 |
| 20260505223505 | 48 | 0 | 0.0 | 0.0 | 0.02 | 1.03 | 1.03 | 87 | 1007.7 |
| 20260505223004 | 48 | 0 | 0.0 | 0.0 | 0.02 | 1.03 | 1.03 | 87 | 1007.8 |
| 20260505222503 | 48 | 45 | 0.0 | 4.0 | 0.02 | 1.02 | 1.02 | 87 | 1007.8 |
| 20260505222005 | 48 | 30 | 0.0 | 4.0 | 0.02 | 1.02 | 1.02 | 87 | 1007.8 |
| 20260505221505 | 48 | 341 | 0.0 | 3.0 | 0.02 | 1.02 | 1.02 | 87 | 1008.0 |
| 20260505221003 | 48 | 359 | 0.0 | 2.0 | 0.02 | 1.02 | 1.02 | 87 | 1008.1 |
| 20260505220504 | 49 | 322 | 0.0 | 10.0 | 0.02 | 1.02 | 1.02 | 87 | 1008.2 |
| 20260505220003 | 49 | 319 | 1.0 | 10.0 | 0.03 | 1.02 | 1.02 | 87 | 1008.2 |
| 20260505215504 | 49 | 319 | 1.0 | 11.0 | 0.02 | 1.01 | 1.01 | 87 | 1008.2 |
| 20260505215004 | 49 | 323 | 2.0 | 16.0 | 0.02 | 1.01 | 1.01 | 87 | 1008.0 |
| 20260505214503 | 50 | 320 | 2.0 | 16.0 | 0.03 | 1.01 | 1.01 | 87 | 1008.0 |
| 20260505214003 | 50 | 317 | 1.0 | 11.0 | 0.03 | 1.01 | 1.01 | 87 | 1007.9 |
| 20260505213504 | 50 | 322 | 1.0 | 11.0 | 0.03 | 1.01 | 1.01 | 87 | 1007.9 |
| 20260505213005 | 51 | 321 | 1.0 | 10.0 | 0.03 | 1.01 | 1.01 | 87 | 1007.8 |
| 20260505212503 | 51 | 0 | 0.0 | 0.0 | 0.02 | 1.00 | 1.00 | 87 | 1007.6 |
| 20260505212003 | 51 | 333 | 1.0 | 9.0 | 0.03 | 1.00 | 1.00 | 87 | 1007.6 |
| 20260505211503 | 51 | 333 | 1.0 | 9.0 | 0.03 | 1.00 | 1.00 | 87 | 1007.6 |
| 20260505211004 | 51 | 336 | 1.0 | 9.0 | 0.03 | 1.00 | 1.00 | 87 | 1007.5 |
| 20260505210503 | 51 | 330 | 0.0 | 8.0 | 0.04 | 1.00 | 1.00 | 87 | 1007.4 |
| 20260505210004 | 52 | 324 | 1.0 | 9.0 | 0.03 | 0.99 | 0.99 | 87 | 1007.4 |
| 20260505205503 | 52 | 324 | 2.0 | 11.0 | 0.03 | 0.99 | 0.99 | 87 | 1007.3 |
| 20260505205003 | 52 | 322 | 1.0 | 11.0 | 0.04 | 0.99 | 0.99 | 87 | 1007.3 |
| 20260505204504 | 53 | 322 | 0.0 | 10.0 | 0.03 | 0.98 | 0.98 | 87 | 1007.2 |
| 20260505204003 | 53 | 331 | 0.0 | 7.0 | 0.03 | 0.98 | 0.98 | 87 | 1007.2 |
| 20260505203503 | 53 | 332 | 0.0 | 7.0 | 0.04 | 0.98 | 0.98 | 87 | 1007.2 |
| 20260505203004 | 54 | 336 | 0.0 | 7.0 | 0.04 | 0.98 | 0.98 | 87 | 1007.1 |
| 20260505202504 | 54 | 322 | 1.0 | 11.0 | 0.04 | 0.98 | 0.98 | 87 | 1007.2 |
| 20260505202003 | 54 | 324 | 1.0 | 11.0 | 0.04 | 0.97 | 0.97 | 88 | 1007.1 |
| 20260505201504 | 54 | 325 | 1.0 | 8.0 | 0.04 | 0.97 | 0.97 | 88 | 1007.0 |
| 20260505201004 | 54 | 322 | 0.0 | 8.0 | 0.05 | 0.97 | 0.97 | 88 | 1006.9 |
| 20260505200505 | 54 | 320 | 1.0 | 7.0 | 0.04 | 0.96 | 0.96 | 88 | 1006.9 |
| 20260505200003 | 54 | 320 | 1.0 | 7.0 | 0.05 | 0.96 | 0.96 | 87 | 1006.9 |
| 20260505195505 | 54 | 319 | 1.0 | 5.0 | 0.05 | 0.96 | 0.96 | 87 | 1006.9 |
| 20260505195004 | 54 | 319 | 1.0 | 5.0 | 0.04 | 0.95 | 0.95 | 87 | 1006.9 |
| 20260505194503 | 54 | 319 | 2.0 | 8.0 | 0.05 | 0.95 | 0.95 | 87 | 1007.0 |
| 20260505194004 | 54 | 319 | 2.0 | 8.0 | 0.05 | 0.95 | 0.95 | 87 | 1007.0 |
| 20260505193504 | 54 | 0 | 0.0 | 0.0 | 0.05 | 0.95 | 0.94 | 87 | 1007.1 |
| 20260505193004 | 54 | 0 | 0.0 | 0.0 | 0.05 | 0.95 | 0.94 | 87 | 1007.1 |
| 20260505192505 | 54 | 0 | 0.0 | 0.0 | 0.06 | 0.95 | 0.94 | 87 | 1006.8 |
| 20260505192004 | 54 | 0 | 0.0 | 0.0 | 0.05 | 0.94 | 0.93 | 87 | 1006.8 |
| 20260505191503 | 54 | 0 | 0.0 | 0.0 | 0.06 | 0.94 | 0.93 | 87 | 1006.7 |
| 20260505191003 | 54 | 0 | 0.0 | 0.0 | 0.05 | 0.93 | 0.92 | 87 | 1006.9 |
| 20260505190503 | 54 | 0 | 0.0 | 0.0 | 0.06 | 0.93 | 0.92 | 87 | 1006.9 |
| 20260505190004 | 54 | 0 | 0.0 | 0.0 | 0.05 | 0.92 | 0.91 | 87 | 1007.1 |
| 20260505185504 | 54 | 0 | 0.0 | 0.0 | 0.06 | 0.92 | 0.91 | 87 | 1007.0 |
| 20260505185003 | 54 | 0 | 0.0 | 0.0 | 0.05 | 0.91 | 0.90 | 87 | 1006.9 |
| 20260505184503 | 54 | 0 | 0.0 | 0.0 | 0.06 | 0.91 | 0.90 | 87 | 1007.0 |
| 20260505184003 | 54 | 0 | 0.0 | 0.0 | 0.06 | 0.91 | 0.90 | 87 | 1007.0 |
| 20260505183503 | 54 | 0 | 0.0 | 0.0 | 0.06 | 0.90 | 0.89 | 87 | 1006.8 |
| 20260505183005 | 54 | 0 | 0.0 | 0.0 | 0.06 | 0.90 | 0.89 | 87 | 1006.8 |
| 20260505182504 | 54 | 0 | 0.0 | 0.0 | 0.06 | 0.89 | 0.88 | 87 | 1006.6 |
| 20260505182004 | 54 | 0 | 0.0 | 0.0 | 0.06 | 0.89 | 0.88 | 87 | 1006.7 |
| 20260505181503 | 54 | 0 | 0.0 | 0.0 | 0.05 | 0.88 | 0.87 | 87 | 1006.7 |
| 20260505181003 | 54 | 0 | 0.0 | 0.0 | 0.05 | 0.88 | 0.87 | 87 | 1007.1 |
| 20260505180504 | 54 | 0 | 0.0 | 0.0 | 0.05 | 0.87 | 0.86 | 87 | 1007.1 |
| 20260505180004 | 54 | 0 | 0.0 | 0.0 | 0.05 | 0.87 | 0.86 | 87 | 1007.0 |
| 20260505175504 | 54 | 315 | 1.0 | 3.0 | 0.04 | 0.86 | 0.85 | 86 | 1007.3 |
| 20260505175003 | 54 | 315 | 1.0 | 3.0 | 0.04 | 0.86 | 0.85 | 86 | 1007.3 |
| 20260505174503 | 54 | 315 | 0.0 | 3.0 | 0.04 | 0.85 | 0.84 | 86 | 1007.6 |
| 20260505174005 | 54 | 314 | 0.0 | 1.0 | 0.04 | 0.85 | 0.84 | 86 | 1007.7 |
| 20260505173503 | 54 | 314 | 0.0 | 1.0 | 0.03 | 0.84 | 0.83 | 86 | 1007.8 |
| 20260505173005 | 54 | 314 | 0.0 | 1.0 | 0.03 | 0.84 | 0.83 | 86 | 1007.8 |
| 20260505172503 | 55 | 314 | 0.0 | 1.0 | 0.02 | 0.83 | 0.82 | 87 | 1007.7 |
| 20260505172003 | 55 | 314 | 0.0 | 3.0 | 0.02 | 0.83 | 0.82 | 86 | 1007.8 |
| 20260505171503 | 55 | 314 | 1.0 | 4.0 | 0.02 | 0.83 | 0.82 | 86 | 1007.8 |
| 20260505171003 | 55 | 314 | 1.0 | 7.0 | 0.02 | 0.83 | 0.82 | 86 | 1008.1 |
| 20260505170504 | 55 | 314 | 1.0 | 7.0 | 0.01 | 0.82 | 0.81 | 86 | 1008.2 |
| 20260505170004 | 55 | 310 | 1.0 | 7.0 | 0.01 | 0.82 | 0.81 | 85 | 1008.0 |
| 20260505165504 | 55 | 310 | 0.0 | 7.0 | 0.01 | 0.82 | 0.81 | 86 | 1007.9 |
| 20260505165003 | 55 | 309 | 0.0 | 4.0 | 0.01 | 0.82 | 0.81 | 86 | 1007.7 |
| 20260505164503 | 56 | 310 | 0.0 | 4.0 | 0.00 | 0.81 | 0.80 | 86 | 1008.0 |
| 20260505164004 | 56 | 319 | 2.0 | 12.0 | 0.01 | 0.81 | 0.80 | 86 | 1008.0 |
| 20260505163503 | 56 | 322 | 4.0 | 12.0 | 0.01 | 0.81 | 0.80 | 86 | 1007.9 |
| 20260505163003 | 58 | 314 | 4.0 | 17.0 | 0.02 | 0.81 | 0.80 | 86 | 1007.9 |
| 20260505162503 | 59 | 298 | 3.0 | 17.0 | 0.04 | 0.81 | 0.80 | 88 | 1007.8 |
| 20260505162003 | 59 | 269 | 2.0 | 5.0 | 0.04 | 0.81 | 0.80 | 88 | 1007.9 |
| 20260505161503 | 59 | 269 | 2.0 | 5.0 | 0.04 | 0.81 | 0.80 | 88 | 1007.8 |
| 20260505161004 | 59 | 269 | 3.0 | 7.0 | 0.04 | 0.81 | 0.80 | 88 | 1007.9 |
| 20260505160504 | 59 | 281 | 2.0 | 7.0 | 0.04 | 0.81 | 0.80 | 88 | 1007.7 |
| 20260505153003 | 59 | 287 | 3.0 | 7.0 | 0.03 | 0.79 | 0.78 | 88 | 1007.9 |
| 20260505152504 | 59 | 285 | 2.0 | 7.0 | 0.01 | 0.77 | 0.76 | 88 | 1007.5 |
| 20260505152003 | 59 | 276 | 2.0 | 7.0 | 0.01 | 0.77 | 0.76 | 88 | 1007.2 |
| 20260505151504 | 59 | 273 | 3.0 | 7.0 | 0.01 | 0.77 | 0.76 | 88 | 1007.3 |
| 20260505151004 | 59 | 271 | 2.0 | 7.0 | 0.01 | 0.77 | 0.76 | 88 | 1007.4 |
| 20260505150503 | 59 | 265 | 1.0 | 7.0 | 0.01 | 0.77 | 0.76 | 88 | 1007.4 |
| 20260505140503 | 58 | 270 | 3.0 | 7.0 | 0.00 | 0.76 | 0.75 | 88 | 1007.2 |
| 20260505125003 | 58 | 217 | 3.0 | 9.0 | 0.00 | 0.83 | 0.75 | 88 | 1006.8 |
| 20260505124504 | 58 | 193 | 2.0 | 7.0 | 0.00 | 0.83 | 0.75 | 88 | 1006.8 |
| 20260505124003 | 58 | 203 | 2.0 | 8.0 | 0.00 | 0.83 | 0.75 | 88 | 1006.7 |
| 20260505123505 | 58 | 214 | 2.0 | 8.0 | 0.00 | 0.83 | 0.75 | 88 | 1006.6 |
| 20260505123004 | 58 | 222 | 2.0 | 8.0 | 0.00 | 0.83 | 0.75 | 88 | 1006.7 |
| 20260505122504 | 57 | 224 | 2.0 | 8.0 | 0.00 | 0.83 | 0.75 | 88 | 1006.6 |
| 20260505122004 | 57 | 226 | 2.0 | 6.0 | 0.00 | 0.83 | 0.75 | 88 | 1006.5 |
| 20260505121503 | 57 | 226 | 2.0 | 3.0 | 0.00 | 0.83 | 0.75 | 88 | 1006.6 |
| 20260505121003 | 57 | 60 | 0.0 | 1.0 | 0.00 | 0.83 | 0.75 | 88 | 1006.8 |
| 20260505120503 | 57 | 60 | 0.0 | 1.0 | 0.00 | 0.83 | 0.75 | 88 | 1006.7 |
| 20260505120004 | 57 | 60 | 0.0 | 1.0 | 0.00 | 0.83 | 0.75 | 88 | 1006.7 |
| 20260505115504 | 56 | 60 | 0.0 | 1.0 | 0.00 | 0.83 | 0.75 | 88 | 1006.5 |
| 20260505115004 | 56 | 60 | 0.0 | 1.0 | 0.00 | 0.83 | 0.75 | 88 | 1006.6 |
| 20260505114503 | 56 | 60 | 0.0 | 1.0 | 0.00 | 0.83 | 0.75 | 88 | 1006.5 |
| 20260505114004 | 56 | 60 | 0.0 | 1.0 | 0.00 | 0.83 | 0.75 | 88 | 1006.4 |
| 20260505113505 | 56 | 60 | 0.0 | 1.0 | 0.00 | 0.83 | 0.75 | 87 | 1006.2 |
| 20260505113003 | 56 | 60 | 0.0 | 1.0 | 0.00 | 0.83 | 0.75 | 87 | 1005.9 |
| 20260505112503 | 56 | 60 | 0.0 | 1.0 | 0.00 | 0.83 | 0.75 | 87 | 1005.8 |
| 20260505112004 | 56 | 60 | 0.0 | 1.0 | 0.00 | 0.83 | 0.75 | 87 | 1005.6 |
| 20260505111504 | 56 | 60 | 0.0 | 1.0 | 0.00 | 0.83 | 0.75 | 87 | 1005.5 |
| 20260505111004 | 56 | 60 | 0.0 | 1.0 | 0.00 | 0.83 | 0.75 | 87 | 1005.6 |
| 20260505110503 | 56 | 60 | 0.0 | 1.0 | 0.00 | 0.83 | 0.75 | 87 | 1005.3 |
| 20260505102003 | 57 | 60 | 0.0 | 1.0 | 0.00 | 0.83 | 0.75 | 87 | 1005.7 |
| 20260505101503 | 57 | 60 | 0.0 | 1.0 | 0.00 | 0.83 | 0.75 | 87 | 1005.6 |
| 20260505101004 | 57 | 60 | 0.0 | 1.0 | 0.00 | 0.83 | 0.75 | 87 | 1005.7 |
| 20260505100506 | 57 | 60 | 0.0 | 1.0 | 0.00 | 0.83 | 0.75 | 87 | 1005.8 |
| 20260505100004 | 57 | 60 | 0.0 | 1.0 | 0.00 | 0.83 | 0.75 | 87 | 1005.5 |
| 20260505095504 | 57 | 60 | 0.0 | 1.0 | 0.00 | 0.83 | 0.75 | 87 | 1005.2 |
| 20260505095003 | 57 | 60 | 0.0 | 1.0 | 0.00 | 0.83 | 0.75 | 87 | 1005.1 |
| 20260505094503 | 57 | 60 | 0.0 | 1.0 | 0.01 | 0.83 | 0.75 | 87 | 1004.8 |
| 20260505094003 | 57 | 60 | 0.0 | 1.0 | 0.02 | 0.83 | 0.75 | 87 | 1005.2 |
| 20260505093505 | 57 | 60 | 0.0 | 1.0 | 0.02 | 0.83 | 0.75 | 87 | 1005.4 |
| 20260505093004 | 57 | 60 | 0.0 | 1.0 | 0.02 | 0.83 | 0.75 | 87 | 1005.3 |
| 20260505092503 | 57 | 60 | 0.0 | 1.0 | 0.03 | 0.83 | 0.75 | 86 | 1005.3 |
| 20260505092004 | 57 | 60 | 0.0 | 1.0 | 0.03 | 0.83 | 0.75 | 86 | 1005.2 |
| 20260505091503 | 57 | 60 | 0.0 | 1.0 | 0.05 | 0.83 | 0.75 | 86 | 1005.0 |
| 20260505091004 | 57 | 60 | 0.0 | 1.0 | 0.07 | 0.83 | 0.75 | 86 | 1004.7 |
| 20260505090505 | 57 | 60 | 0.0 | 1.0 | 0.11 | 0.83 | 0.75 | 86 | 1003.9 |
| 20260505090004 | 57 | 60 | 0.0 | 1.0 | 0.11 | 0.83 | 0.75 | 86 | 1004.6 |
| 20260505085503 | 57 | 60 | 0.0 | 1.0 | 0.13 | 0.83 | 0.75 | 86 | 1004.2 |
| 20260505085004 | 57 | 60 | 0.0 | 1.0 | 0.16 | 0.83 | 0.75 | 86 | 1003.8 |
| 20260505084504 | 57 | 60 | 0.0 | 1.0 | 0.17 | 0.82 | 0.74 | 86 | 1004.6 |
| 20260505084004 | 57 | 60 | 0.0 | 1.0 | 0.18 | 0.81 | 0.73 | 86 | 1004.5 |
| 20260505083504 | 57 | 60 | 0.0 | 1.0 | 0.19 | 0.81 | 0.73 | 85 | 1004.7 |
| 20260505083003 | 57 | 60 | 0.0 | 1.0 | 0.19 | 0.80 | 0.72 | 85 | 1004.5 |
| 20260505082503 | 57 | 60 | 0.0 | 1.0 | 0.21 | 0.80 | 0.72 | 85 | 1004.8 |
| 20260505082003 | 57 | 60 | 0.0 | 1.0 | 0.21 | 0.79 | 0.71 | 85 | 1005.1 |
| 20260505081503 | 57 | 60 | 0.0 | 1.0 | 0.21 | 0.77 | 0.69 | 85 | 1005.5 |
| 20260505081004 | 57 | 60 | 0.0 | 1.0 | 0.21 | 0.75 | 0.67 | 85 | 1006.2 |
| 20260505080504 | 57 | 60 | 0.0 | 1.0 | 0.25 | 0.72 | 0.64 | 85 | 1006.6 |